• In Schweiz
  • Länderverzeichnis
  • Für 7 Tage
  • Wassertemperatur
  • Satellitenkarten
  • Wetterkarte
  • Widgets
  • user-avatar
    Anmelden

    Stündliche Wetter Sahunivka

    Heute, 18 August, Samstag

    Zeit Temperatur Niederschläge Wind Luftdruck Luftfeuchtigkeit
    00:00 +24°C° 0,1 mm 3 m/S 754 mmHg 68%
    01:00 +22°C° 0,1 mm 3 m/S 754 mmHg 69%
    02:00 +22°C° 0 mm 3 m/S 754 mmHg 72%
    03:00 +21°C° 0,1 mm 3 m/S 754 mmHg 74%
    04:00 +21°C° 0,1 mm 3 m/S 755 mmHg 77%
    05:00 +21°C° 0,1 mm 3 m/S 755 mmHg 79%
    06:00 +22°C° 0 mm 3 m/S 755 mmHg 75%
    07:00 +24°C° 0 mm 3 m/S 755 mmHg 71%
    08:00 +26°C° 0 mm 4 m/S 756 mmHg 65%
    09:00 +27°C° 0 mm 4 m/S 756 mmHg 59%
    10:00 +29°C° 0 mm 4 m/S 756 mmHg 53%
    11:00 +30°C° 0 mm 4 m/S 756 mmHg 47%
    12:00 +32°C° 0 mm 4 m/S 756 mmHg 45%
    13:00 +32°C° 0 mm 4 m/S 756 mmHg 42%
    14:00 +33°C° 0 mm 4 m/S 755 mmHg 40%
    15:00 +32°C° 0 mm 4 m/S 755 mmHg 41%
    16:00 +32°C° 0 mm 4 m/S 755 mmHg 42%
    17:00 +30°C° 0 mm 4 m/S 755 mmHg 43%
    18:00 +28°C° 0 mm 4 m/S 756 mmHg 48%
    19:00 +26°C° 0 mm 4 m/S 756 mmHg 52%
    20:00 +24°C° 0 mm 3 m/S 756 mmHg 57%
    21:00 +22°C° 0 mm 3 m/S 756 mmHg 59%
    22:00 +22°C° 0 mm 3 m/S 756 mmHg 61%
    23:00 +21°C° 0 mm 3 m/S 757 mmHg 63%

    Morgen, 19 August, Sonntag

    Zeit Temperatur Niederschläge Wind Luftdruck Luftfeuchtigkeit
    00:00 +20°C° 0 mm 3 m/S 757 mmHg 65%
    01:00 +20°C° 0 mm 3 m/S 757 mmHg 66%
    02:00 +19°C° 0 mm 3 m/S 757 mmHg 68%
    03:00 +19°C° 0 mm 3 m/S 757 mmHg 68%
    04:00 +18°C° 0 mm 2 m/S 757 mmHg 69%
    05:00 +17°C° 0 mm 2 m/S 757 mmHg 70%
    06:00 +19°C° 0 mm 2 m/S 757 mmHg 64%
    07:00 +21°C° 0 mm 3 m/S 757 mmHg 59%
    08:00 +22°C° 0 mm 3 m/S 757 mmHg 53%
    09:00 +25°C° 0 mm 3 m/S 757 mmHg 48%
    10:00 +27°C° 0 mm 3 m/S 757 mmHg 42%
    11:00 +28°C° 0 mm 3 m/S 757 mmHg 37%
    12:00 +29°C° 0 mm 3 m/S 757 mmHg 35%
    13:00 +30°C° 0 mm 3 m/S 757 mmHg 32%
    14:00 +30°C° 0 mm 3 m/S 756 mmHg 30%
    15:00 +30°C° 0 mm 2 m/S 756 mmHg 31%
    16:00 +30°C° 0 mm 2 m/S 756 mmHg 31%
    17:00 +30°C° 0 mm 2 m/S 756 mmHg 32%
    18:00 +28°C° 0 mm 2 m/S 756 mmHg 34%
    19:00 +26°C° 0 mm 2 m/S 756 mmHg 37%
    20:00 +24°C° 0 mm 2 m/S 756 mmHg 39%
    21:00 +23°C° 0 mm 2 m/S 756 mmHg 41%
    22:00 +21°C° 0 mm 2 m/S 756 mmHg 42%
    23:00 +21°C° 0 mm 3 m/S 756 mmHg 43%

    übermorgen, 20 August, Montag

    Zeit Temperatur Niederschläge Wind Luftdruck Luftfeuchtigkeit
    00:00 +20°C° 0 mm 2 m/S 756 mmHg 44%
    01:00 +20°C° 0 mm 2 m/S 756 mmHg 45%
    02:00 +19°C° 0 mm 2 m/S 756 mmHg 46%
    03:00 +19°C° 0 mm 2 m/S 756 mmHg 46%
    04:00 +18°C° 0 mm 2 m/S 756 mmHg 47%
    05:00 +18°C° 0 mm 2 m/S 756 mmHg 47%
    06:00 +20°C° 0 mm 2 m/S 756 mmHg 45%
    07:00 +23°C° 0 mm 2 m/S 756 mmHg 42%
    08:00 +24°C° 0 mm 2 m/S 756 mmHg 40%
    09:00 +26°C° 0 mm 2 m/S 756 mmHg 36%
    10:00 +27°C° 0 mm 2 m/S 756 mmHg 33%
    11:00 +29°C° 0 mm 3 m/S 756 mmHg 29%
    12:00 +29°C° 0 mm 2 m/S 756 mmHg 28%
    13:00 +30°C° 0 mm 2 m/S 756 mmHg 27%
    14:00 +30°C° 0 mm 2 m/S 755 mmHg 26%
    15:00 +30°C° 0 mm 2 m/S 755 mmHg 27%
    16:00 +30°C° 0 mm 2 m/S 755 mmHg 28%
    17:00 +30°C° 0 mm 1 m/S 755 mmHg 30%
    18:00 +28°C° 0 mm 1 m/S 755 mmHg 32%
    19:00 +26°C° 0 mm 2 m/S 755 mmHg 34%
    20:00 +24°C° 0 mm 2 m/S 755 mmHg 36%
    21:00 +24°C° 0 mm 2 m/S 755 mmHg 36%
    22:00 +23°C° 0 mm 2 m/S 755 mmHg 37%
    23:00 +23°C° 0 mm 2 m/S 755 mmHg 37%

    21 August, Dienstag

    Zeit Temperatur Niederschläge Wind Luftdruck Luftfeuchtigkeit
    00:00 +21°C° 0 mm 2 m/S 755 mmHg 38%
    01:00 +21°C° 0 mm 2 m/S 755 mmHg 39%
    02:00 +20°C° 0 mm 2 m/S 755 mmHg 40%
    03:00 +20°C° 0 mm 2 m/S 755 mmHg 40%
    04:00 +20°C° 0 mm 2 m/S 755 mmHg 41%
    05:00 +19°C° 0 mm 2 m/S 754 mmHg 41%
    06:00 +21°C° 0 mm 2 m/S 755 mmHg 40%
    07:00 +24°C° 0 mm 2 m/S 755 mmHg 38%
    08:00 +26°C° 0 mm 3 m/S 755 mmHg 37%
    09:00 +27°C° 0 mm 3 m/S 755 mmHg 33%
    10:00 +29°C° 0 mm 3 m/S 754 mmHg 30%
    11:00 +31°C° 0 mm 3 m/S 754 mmHg 26%
    12:00 +31°C° 0 mm 3 m/S 754 mmHg 27%
    13:00 +33°C° 0 mm 3 m/S 754 mmHg 27%
    14:00 +34°C° 0 mm 3 m/S 753 mmHg 27%
    15:00 +33°C° 0 mm 3 m/S 753 mmHg 30%
    16:00 +33°C° 0 mm 3 m/S 753 mmHg 33%
    17:00 +33°C° 0 mm 3 m/S 753 mmHg 35%
    18:00 +30°C° 0 mm 3 m/S 753 mmHg 40%
    19:00 +28°C° 0 mm 2 m/S 753 mmHg 46%
    20:00 +26°C° 0 mm 2 m/S 753 mmHg 51%
    21:00 +26°C° 0 mm 2 m/S 753 mmHg 56%
    22:00 +25°C° 0 mm 2 m/S 753 mmHg 60%
    23:00 +24°C° 0 mm 2 m/S 754 mmHg 65%

    22 August, Mittwoch

    Zeit Temperatur Niederschläge Wind Luftdruck Luftfeuchtigkeit
    00:00 +23°C° 0 mm 2 m/S 754 mmHg 70%
    01:00 +22°C° 0 mm 3 m/S 754 mmHg 75%
    02:00 +21°C° 0 mm 3 m/S 754 mmHg 80%
    03:00 +20°C° 0 mm 3 m/S 754 mmHg 84%
    04:00 +20°C° 0 mm 3 m/S 754 mmHg 87%
    05:00 +19°C° 0 mm 4 m/S 755 mmHg 90%
    06:00 +20°C° 0 mm 4 m/S 755 mmHg 84%
    07:00 +21°C° 0 mm 5 m/S 756 mmHg 78%
    08:00 +22°C° 0 mm 5 m/S 756 mmHg 72%
    09:00 +23°C° 0 mm 5 m/S 756 mmHg 64%
    10:00 +25°C° 0 mm 5 m/S 756 mmHg 57%
    11:00 +26°C° 0 mm 6 m/S 757 mmHg 50%
    12:00 +27°C° 0 mm 6 m/S 757 mmHg 47%
    13:00 +27°C° 0 mm 6 m/S 757 mmHg 43%
    14:00 +27°C° 0 mm 6 m/S 757 mmHg 40%
    15:00 +27°C° 0 mm 6 m/S 757 mmHg 41%
    16:00 +26°C° 0 mm 5 m/S 757 mmHg 42%
    17:00 +26°C° 0 mm 5 m/S 757 mmHg 42%
    18:00 +23°C° 0 mm 5 m/S 758 mmHg 47%
    19:00 +21°C° 0 mm 4 m/S 758 mmHg 52%
    20:00 +20°C° 0 mm 4 m/S 759 mmHg 56%
    21:00 +19°C° 0 mm 4 m/S 759 mmHg 59%
    22:00 +18°C° 0 mm 3 m/S 759 mmHg 61%
    23:00 +17°C° 0 mm 3 m/S 759 mmHg 64%

    23 August, Donnerstag

    Zeit Temperatur Niederschläge Wind Luftdruck Luftfeuchtigkeit
    00:00 +16°C° 0 mm 3 m/S 759 mmHg 66%
    01:00 +16°C° 0 mm 3 m/S 759 mmHg 68%
    02:00 +14°C° 0 mm 3 m/S 759 mmHg 70%
    03:00 +14°C° 0 mm 3 m/S 759 mmHg 72%
    04:00 +13°C° 0 mm 3 m/S 759 mmHg 73%
    05:00 +13°C° 0 mm 3 m/S 760 mmHg 75%
    06:00 +16°C° 0 mm 3 m/S 760 mmHg 68%
    07:00 +18°C° 0 mm 3 m/S 760 mmHg 62%
    08:00 +19°C° 0 mm 4 m/S 760 mmHg 56%
    09:00 +21°C° 0 mm 4 m/S 759 mmHg 49%
    10:00 +22°C° 0 mm 4 m/S 759 mmHg 43%
    11:00 +25°C° 0 mm 4 m/S 759 mmHg 37%
    12:00 +26°C° 0 mm 4 m/S 759 mmHg 35%
    13:00 +26°C° 0 mm 4 m/S 758 mmHg 33%
    14:00 +27°C° 0 mm 4 m/S 758 mmHg 30%
    15:00 +27°C° 0 mm 4 m/S 758 mmHg 32%
    16:00 +26°C° 0 mm 4 m/S 758 mmHg 33%
    17:00 +26°C° 0 mm 4 m/S 757 mmHg 34%
    18:00 +23°C° 0 mm 4 m/S 757 mmHg 40%
    19:00 +21°C° 0 mm 3 m/S 758 mmHg 45%
    20:00 +19°C° 0 mm 3 m/S 758 mmHg 50%
    21:00 +19°C° 0 mm 3 m/S 758 mmHg 52%
    22:00 +18°C° 0 mm 3 m/S 757 mmHg 55%
    23:00 +17°C° 0 mm 3 m/S 757 mmHg 57%
    Mehr zeigen